Regional Weather Roundup
Issued by NWS

Home | Current Version | Previous Version | Text Only | Print | Product List | Glossary On
Versions: 1 2 3 4 5 6 7 8 9 10 11 12 13 14 15 16 17 18 19 20 21 22 23 24 25 26 27 28 29 30 31 32 33 34 35 36 37 38 39 40 41 42 43 44 45 46 47 48 49 50
000
ASUS43 KMKX 220900
RWRWI

WISCONSIN REGIONAL WEATHER ROUNDUP
NATIONAL WEATHER SERVICE MILWAUKEE/SULLIVAN WI
400 AM CDT TUE AUG 22 2017

NOTE: "FAIR" INDICATES FEW OR NO CLOUDS BELOW 12,000 FEET WITH NO
SIGNIFICANT WEATHER AND/OR OBSTRUCTIONS TO VISIBILITY.

WIZ001-002-006>008-014>016-023>028-221000-
NORTHWEST WISCONSIN

CITY           SKY/WX    TMP DP  RH WIND       PRES   REMARKS
SUPERIOR ARPT    N/A     56  56 100 CALM      29.86R
ASHLAND        CLOUDY    56  55  97 W6        29.84R
HAYWARD        CLOUDY    59  56  89 NW3       29.86R
SIREN          PTCLDY    59  58  94 NW6       29.88R
CUMBERLAND     CLEAR     61  57  88 NW14      29.86S
RICE LAKE      CLEAR     63  60  89 NW5       29.86S
CHETEK         CLEAR     64  62  92 NW5       29.84S
LADYSMITH      CLOUDY    64  62  93 NW10      29.84R
EAU CLAIRE     NOT AVBL
MENOMONIE      CLEAR     65  62  90 W8        29.85S
NEW RICHMOND   CLEAR     62  60  94 NW6       29.89R
OSCEOLA        CLEAR     63  63 100 NW7       29.91S
$$

WIZ003>005-009-010-017-018-221000-
NORTH CENTRAL WISCONSIN

CITY           SKY/WX    TMP DP  RH WIND       PRES   REMARKS
MANITOWISH WTR CLOUDY    56  56 100 N6        29.80S
ARBOR VITAE    CLOUDY    62  60  94 N13       29.79R
WOODRUFF       CLOUDY    62  60  94 N13       29.79R
RHINELANDER    CLOUDY    64  63  96 W13G20    29.77S
EAGLE RIVER    CLOUDY    62  61  97 N10G17    29.76R
LAND O LAKES   CLOUDY    58  58  97 N10       29.79R
PHILLIPS       MOCLDY    59  58  98 NW8       29.80R
TOMAHAWK         N/A     63  61  92 W5        29.78S
MEDFORD        CLOUDY    64  62  93 W10       29.79F
MERRILL        NOT AVBL
$$

WIZ029-030-035-036-043>047-221000-
CENTRAL WISCONSIN

CITY           SKY/WX    TMP DP  RH WIND       PRES   REMARKS
WAUSAU         CLOUDY    65  62  90 W13       29.75F
MOSINEE        CLOUDY    64  63  94 W14G20    29.79F
MARSHFIELD     CLOUDY    65  61  87 W10       29.79F
STEVENS POINT  CLOUDY    64  63  96 W10       29.79F
WAUPACA        CLOUDY    67  64  90 SW7       29.78F
WAUTOMA        CLOUDY    64  62  93 SW6       29.80F
WISC RAPIDS    CLOUDY    65  63  93 W8        29.81F
CAMP DOUGLAS   PTCLDY    64  63  97 W9        29.81F
$$

WIZ011>013-019>022-031-037>040-048>050-221000-
NORTHEAST WISCONSIN

CITY           SKY/WX    TMP DP  RH WIND       PRES   REMARKS
ANTIGO         CLOUDY    64  62  95 W10       29.77F
SHAWANO        PTCLDY    68  63  84 SW7       29.74F
OCONTO         MOCLDY    67  63  87 W7        29.72F
STURGEON BAY   CLOUDY    68  64  87 W8        29.73F
GREEN BAY      PTCLDY    67  65  93 SW8       29.75F
MANITOWOC      NOT AVBL
APPLETON       CLOUDY    64  63  94 SW9       29.77F
CLINTONVILLE   MOCLDY    64  61  88 SW5       29.76F
OSHKOSH        CLOUDY    67  63  87 W5        29.78F
$$

WIZ032>034-041-042-053>061-221000-
SOUTHWEST WISCONSIN

CITY           SKY/WX    TMP DP  RH WIND       PRES   REMARKS
LA CROSSE      CLOUDY    70  64  81 W9        29.83F
SPARTA         CLOUDY    61  60  98 W6        29.84F
VIROQUA        MOCLDY    62  62 100 CALM      29.87F
BOSCOBEL       CLOUDY    66  63  90 SW6       29.85F
PRAIRIE DU CHI CLOUDY    65  62  89 W7        29.87F
PLATTEVILLE    CLOUDY    65  65 100 W7        29.89F
$$

WIZ056-057-062-063-064-067-068-221000-
SOUTH CENTRAL WISCONSIN

CITY           SKY/WX    TMP DP  RH WIND       PRES   REMARKS
REEDSBURG      CLOUDY    64  64 100 W8        29.83F
BARABOO/DELLS  CLOUDY    64  61  90 SW6       29.83F
LONE ROCK      NOT AVBL
MINERAL POINT  CLOUDY    64  64 100 W9        29.88F
MADISON        CLOUDY    68  63  84 CALM      29.84F
MIDDLETON      CLOUDY    68  65  89 W6        29.86F
WATERTOWN      CLOUDY    68  66  93 W5        29.84S
MONROE         CLOUDY    68  63  83 W13G20    29.88F
JANESVILLE     CLOUDY    72  70  94 W10G17    29.86R
$$

WIZ051-052-058>065-066-070>072-221000-
SOUTHEAST WISCONSIN

CITY           SKY/WX    TMP DP  RH WIND       PRES   REMARKS
MILWAUKEE      CLOUDY    75  69  81 W9        29.82R
WAUKESHA       CLOUDY    68  64  88 W8        29.85R
MILWAUKEE/TIMM CLOUDY    70  64  83 W12       29.84R
RACINE         CLOUDY    74  70  87 W8G17     29.84S
KENOSHA        CLOUDY    73  69  87 W12       29.83F
FOND DU LAC    CLOUDY    67  62  84 SW6       29.81S
SHEBOYGAN      CLOUDY    68  68 100 W7        29.79R
WEST BEND      CLOUDY    68  64  88 W6        29.83R
JUNEAU         CLOUDY    66  63  89 W5        29.84S
$$

LSZ147-162-221000-
LAKE SUPERIOR

STATION/POSITION TIME  TEMP    WIND        PRES    WAVE
                       AIR SEA DIR/SP/G            HT/PER
                 (UTC) (F)     (DEG/KT/KT) (MB)    (FT/S)
W MID LAKE BUOY  0750   59 60  310/ 12/ 16 1008.0F   1
DEVILS ISLAND    0800   59     300/  8/  9 1009.8R
PORT WING        0740   61     310/  7/  9 1010.5R
SAXON HARBOR     0840   61     330/  9/ 11 1009.5R
$$

LMZ867-665-643>646-221000-
LAKE MICHIGAN

STATION/POSITION TIME  TEMP    WIND        PRES    WAVE
                       AIR SEA DIR/SP/G            HT/PER
                 (UTC) (F)     (DEG/KT/KT) (MB)    (FT/S)
S GREEN BAY BUOY 0830   71 72  250/ 16/ 19 1006.6F
N MID LAKE BUOY  0750   69 68  220/ 14/ 14 1006.2F   2/ 4
NORTHPORT PIER   0840   70     240/  4/  9 1005.4F
KEWAUNEE LAKESHO 0830   71     270/  8/ 12 1006.4F
SHEBOYGAN LAKESH 0800   71     250/  7/  8 1008.0F
PORT WASHINGTON  0830   73     270/  6/ 10 1010.2R
ATWATER BUOY     0709   74 66  240/ 10/ 10 1009.5F
MILWAUKEE LAKESH 0840   74     270/ 10/ 12   N/A
S MID LAKE BUOY  0750   73 72  240/ 17/ 21 1009.7R   3/ 4
KENOSHA   LAKESH 0800   74     220/  8/ 20 1010.5
$$

TC  - TEMPERATURE IN CELSIUS
VSB - VISIBILITY IN STATUTE MILES
WCI - WIND CHILL INDEX
HX  - HEAT INDEX





USA.gov is the U.S. government's official web portal to all federal, state and local government web resources and services.